owner,sensor,date,latitude,longitude,vertical_datum,direction_of_sea_water_velocity,sea_water_speed,upward_sea_water_velocity,qcFlag 
TABS,ioos:station:wmo:42046:1,2006-01-01T00:00:00Z,27.8903,-94.0367,2.0,94.32816912,52.33926442,-99999.0,'11111222,11111222,99999999' 
TABS,ioos:station:wmo:42046:1,2006-01-01T00:30:00Z,27.8903,-94.0367,2.0,91.93022174,53.44032279,-99999.0,'11111222,11111222,99999999' 
TABS,ioos:station:wmo:42046:1,2006-01-01T01:00:00Z,27.8903,-94.0367,2.0,94.32816912,52.33926442,-99999.0,'11111222,11111222,99999999' 
TABS,ioos:station:wmo:42046:1,2006-01-01T01:30:00Z,27.8903,-94.0367,2.0,101.3364113,50.8725309,-99999.0,'11111222,11111222,99999999' 
TABS,ioos:station:wmo:42046:1,2006-01-01T02:00:00Z,27.8903,-94.0367,2.0,98.26591156,50.70676976,-99999.0,'11111222,11111222,99999999' 
TABS,ioos:station:wmo:42046:1,2006-01-01T02:30:00Z,27.8903,-94.0367,2.0,102.7149844,44.38854469,-99999.0,'11111222,11111222,99999999' 
TABS,ioos:station:wmo:42046:1,2006-01-01T03:00:00Z,27.8903,-94.0367,2.0,103.0717182,45.09861306,-99999.0,'11111222,11111222,99999999' 
TABS,ioos:station:wmo:42046:1,2006-01-01T03:30:00Z,27.8903,-94.0367,2.0,101.7289836,43.43696352,-99999.0,'11111222,11111222,99999999' 
TABS,ioos:station:wmo:42046:1,2006-01-01T04:00:00Z,27.8903,-94.0367,2.0,105.1905142,43.58279477,-99999.0,'11111222,11111222,99999999' 
TABS,ioos:station:wmo:42046:1,2006-01-01T04:30:00Z,27.8903,-94.0367,2.0,102.4335494,38.50304014,-99999.0,'11111222,11111222,99999999' 
TABS,ioos:station:wmo:42046:1,2006-01-01T05:00:00Z,27.8903,-94.0367,2.0,108.9131055,36.37378452,-99999.0,'11111222,11111222,99999999' 
TABS,ioos:station:wmo:42046:1,2006-01-01T05:30:00Z,27.8903,-94.0367,2.0,108.1957767,37.88441632,-99999.0,'11111222,11111222,99999999' 
TABS,ioos:station:wmo:42046:1,2006-01-01T06:00:00Z,27.8903,-94.0367,2.0,110.5229336,38.53580413,-99999.0,'11111222,11111222,99999999' 
TABS,ioos:station:wmo:42046:1,2006-01-01T06:30:00Z,27.8903,-94.0367,2.0,114.4820772,39.74329881,-99999.0,'11111222,11111222,99999999' 
TABS,ioos:station:wmo:42046:1,2006-01-01T07:00:00Z,27.8903,-94.0367,2.0,116.7914529,38.46961398,-99999.0,'11111222,11111222,99999999' 
TABS,ioos:station:wmo:42046:1,2006-01-01T07:30:00Z,27.8903,-94.0367,2.0,115.6103929,35.16481338,-99999.0,'11111222,11111222,99999999' 
TABS,ioos:station:wmo:42046:1,2006-01-01T08:00:00Z,27.8903,-94.0367,2.0,116.1027149,37.13782573,-99999.0,'11111222,11111222,99999999' 
TABS,ioos:station:wmo:42046:1,2006-01-01T08:30:00Z,27.8903,-94.0367,2.0,113.4072095,33.52932001,-99999.0,'11111222,11111222,99999999' 
TABS,ioos:station:wmo:42046:1,2006-01-01T09:00:00Z,27.8903,-94.0367,2.0,106.8507889,35.11786582,-99999.0,'11111222,11111222,99999999' 
TABS,ioos:station:wmo:42046:1,2006-01-01T09:30:00Z,27.8903,-94.0367,2.0,113.1157259,32.70584046,-99999.0,'11111222,11111222,99999999' 
TABS,ioos:station:wmo:42046:1,2006-01-01T10:00:00Z,27.8903,-94.0367,2.0,112.0983921,36.17765194,-99999.0,'11111222,11111222,99999999' 
TABS,ioos:station:wmo:42046:1,2006-01-01T10:30:00Z,27.8903,-94.0367,2.0,100.2168557,33.20654303,-99999.0,'11111222,11111222,99999999' 
TABS,ioos:station:wmo:42046:1,2006-01-01T11:00:00Z,27.8903,-94.0367,2.0,96.61955141,37.82214299,-99999.0,'11111222,11111222,99999999' 
TABS,ioos:station:wmo:42046:1,2006-01-01T11:30:00Z,27.8903,-94.0367,2.0,90.62204257,35.0020628,-99999.0,'11111222,11111222,99999999' 
TABS,ioos:station:wmo:42046:1,2006-01-01T12:00:00Z,27.8903,-94.0367,2.0,91.72205337,35.60608094,-99999.0,'11111222,11111222,99999999' 
TABS,ioos:station:wmo:42046:1,2006-01-01T12:30:00Z,27.8903,-94.0367,2.0,92.82008571,35.16258381,-99999.0,'11111222,11111222,99999999' 
TABS,ioos:station:wmo:42046:1,2006-01-01T13:00:00Z,27.8903,-94.0367,2.0,97.39981318,31.29060242,-99999.0,'11111222,11111222,99999999' 
TABS,ioos:station:wmo:42046:1,2006-01-01T13:30:00Z,27.8903,-94.0367,2.0,94.71251133,31.64698406,-99999.0,'11111222,11111222,99999999' 
TABS,ioos:station:wmo:42046:1,2006-01-01T14:00:00Z,27.8903,-94.0367,2.0,88.85194434,34.93701332,-99999.0,'11111222,11111222,99999999' 
TABS,ioos:station:wmo:42046:1,2006-01-01T14:30:00Z,27.8903,-94.0367,2.0,86.63632761,36.30254123,-99999.0,'11111222,11111222,99999999' 
TABS,ioos:station:wmo:42046:1,2006-01-01T15:00:00Z,27.8903,-94.0367,2.0,86.86951466,36.07383124,-99999.0,'11111222,11111222,99999999' 
TABS,ioos:station:wmo:42046:1,2006-01-01T15:30:00Z,27.8903,-94.0367,2.0,89.42000917,36.55187273,-99999.0,'11111222,11111222,99999999' 
TABS,ioos:station:wmo:42046:1,2006-01-01T16:00:00Z,27.8903,-94.0367,2.0,85.59805141,40.51952739,-99999.0,'11111222,11111222,99999999' 
TABS,ioos:station:wmo:42046:1,2006-01-01T16:30:00Z,27.8903,-94.0367,2.0,80.3354665,38.65866268,-99999.0,'11111222,11111222,99999999' 
TABS,ioos:station:wmo:42046:1,2006-01-01T17:00:00Z,27.8903,-94.0367,2.0,85.3475906,42.78095955,-99999.0,'11111222,11111222,99999999' 
TABS,ioos:station:wmo:42046:1,2006-01-01T17:30:00Z,27.8903,-94.0367,2.0,83.85951178,41.5081498,-99999.0,'11111222,11111222,99999999' 
TABS,ioos:station:wmo:42046:1,2006-01-01T18:00:00Z,27.8903,-94.0367,2.0,88.70330073,44.63142951,-99999.0,'11111222,11111222,99999999' 
TABS,ioos:station:wmo:42046:1,2006-01-01T18:30:00Z,27.8903,-94.0367,2.0,89.40797412,47.42253156,-99999.0,'11111222,11111222,99999999' 
TABS,ioos:station:wmo:42046:1,2006-01-01T19:00:00Z,27.8903,-94.0367,2.0,85.62442666,45.61294553,-99999.0,'11111222,11111222,99999999' 
TABS,ioos:station:wmo:42046:1,2006-01-01T19:30:00Z,27.8903,-94.0367,2.0,89.97796321,52.00000385,-99999.0,'11111222,11111222,99999999' 
TABS,ioos:station:wmo:42046:1,2006-01-01T20:00:00Z,27.8903,-94.0367,2.0,89.92644979,54.53004493,-99999.0,'11111222,11111222,99999999' 
TABS,ioos:station:wmo:42046:1,2006-01-01T20:30:00Z,27.8903,-94.0367,2.0,90.9584069,56.19786206,-99999.0,'11111222,11111222,99999999' 
TABS,ioos:station:wmo:42046:1,2006-01-01T21:00:00Z,27.8903,-94.0367,2.0,88.87975521,58.82124276,-99999.0,'11111222,11111222,99999999' 
TABS,ioos:station:wmo:42046:1,2006-01-01T21:30:00Z,27.8903,-94.0367,2.0,88.83281533,59.8924269,-99999.0,'11111222,11111222,99999999' 
TABS,ioos:station:wmo:42046:1,2006-01-01T22:00:00Z,27.8903,-94.0367,2.0,89.08730224,60.26764638,-99999.0,'11111222,11111222,99999999' 
TABS,ioos:station:wmo:42046:1,2006-01-01T22:30:00Z,27.8903,-94.0367,2.0,88.91925259,62.03103497,-99999.0,'11111222,11111222,99999999' 
TABS,ioos:station:wmo:42046:1,2006-01-01T23:00:00Z,27.8903,-94.0367,2.0,92.36264964,64.5248518,-99999.0,'11111222,11111222,99999999' 
TABS,ioos:station:wmo:42046:1,2006-01-01T23:30:00Z,27.8903,-94.0367,2.0,96.15822169,61.89718249,-99999.0,'11111222,11111222,99999999' 
TABS,ioos:station:wmo:42046:1,2006-01-02T00:00:00Z,27.8903,-94.0367,2.0,97.55452079,64.19722112,-99999.0,'11111222,11111222,99999999' 
TABS,ioos:station:wmo:42046:1,2006-01-02T00:30:00Z,27.8903,-94.0367,2.0,95.01773774,60.48178734,-99999.0,'11111222,11111222,99999999' 
TABS,ioos:station:wmo:42046:1,2006-01-02T01:00:00Z,27.8903,-94.0367,2.0,97.55452079,64.19722112,-99999.0,'11111222,11111222,99999999' 
TABS,ioos:station:wmo:42046:1,2006-01-02T01:30:00Z,27.8903,-94.0367,2.0,100.1001478,60.84290345,-99999.0,'11111222,11111222,99999999' 
TABS,ioos:station:wmo:42046:1,2006-01-02T02:00:00Z,27.8903,-94.0367,2.0,103.5633899,60.25032614,-99999.0,'11111222,11111222,99999999' 
TABS,ioos:station:wmo:42046:1,2006-01-02T02:30:00Z,27.8903,-94.0367,2.0,103.6830228,60.19848586,-99999.0,'11111222,11111222,99999999' 
TABS,ioos:station:wmo:42046:1,2006-01-02T03:00:00Z,27.8903,-94.0367,2.0,102.8973615,62.7224011,-99999.0,'11111222,11111222,99999999' 
TABS,ioos:station:wmo:42046:1,2006-01-02T03:30:00Z,27.8903,-94.0367,2.0,99.33295085,61.16973108,-99999.0,'11111222,11111222,99999999' 
TABS,ioos:station:wmo:42046:1,2006-01-02T04:00:00Z,27.8903,-94.0367,2.0,98.12305061,57.6079899,-99999.0,'11111222,11111222,99999999' 
TABS,ioos:station:wmo:42046:1,2006-01-02T04:30:00Z,27.8903,-94.0367,2.0,96.67348378,56.19071987,-99999.0,'11111222,11111222,99999999' 
TABS,ioos:station:wmo:42046:1,2006-01-02T05:00:00Z,27.8903,-94.0367,2.0,99.22238543,51.03975705,-99999.0,'11111222,11111222,99999999' 
TABS,ioos:station:wmo:42046:1,2006-01-02T05:30:00Z,27.8903,-94.0367,2.0,102.3339167,51.02776205,-99999.0,'11111222,11111222,99999999' 
TABS,ioos:station:wmo:42046:1,2006-01-02T06:00:00Z,27.8903,-94.0367,2.0,104.6803234,46.60131436,-99999.0,'11111222,11111222,99999999' 
TABS,ioos:station:wmo:42046:1,2006-01-02T06:30:00Z,27.8903,-94.0367,2.0,103.3162739,44.5888439,-99999.0,'11111222,11111222,99999999' 
TABS,ioos:station:wmo:42046:1,2006-01-02T07:00:00Z,27.8903,-94.0367,2.0,104.009009,45.97748362,-99999.0,'11111222,11111222,99999999' 
TABS,ioos:station:wmo:42046:1,2006-01-02T07:30:00Z,27.8903,-94.0367,2.0,103.6140558,45.75558764,-99999.0,'11111222,11111222,99999999' 
TABS,ioos:station:wmo:42046:1,2006-01-02T08:00:00Z,27.8903,-94.0367,2.0,101.7356648,43.01926196,-99999.0,'11111222,11111222,99999999' 
TABS,ioos:station:wmo:42046:1,2006-01-02T08:30:00Z,27.8903,-94.0367,2.0,103.9931312,45.16014615,-99999.0,'11111222,11111222,99999999' 
TABS,ioos:station:wmo:42046:1,2006-01-02T09:00:00Z,27.8903,-94.0367,2.0,104.167395,43.43096821,-99999.0,'11111222,11111222,99999999' 
TABS,ioos:station:wmo:42046:1,2006-01-02T09:30:00Z,27.8903,-94.0367,2.0,106.0066431,43.66282744,-99999.0,'11111222,11111222,99999999' 
TABS,ioos:station:wmo:42046:1,2006-01-02T10:00:00Z,27.8903,-94.0367,2.0,105.0138883,45.62759362,-99999.0,'11111222,11111222,99999999' 
TABS,ioos:station:wmo:42046:1,2006-01-02T10:30:00Z,27.8903,-94.0367,2.0,101.7419841,44.47059815,-99999.0,'11111222,11111222,99999999' 
TABS,ioos:station:wmo:42046:1,2006-01-02T11:00:00Z,27.8903,-94.0367,2.0,100.1422452,43.49974713,-99999.0,'11111222,11111222,99999999' 
TABS,ioos:station:wmo:42046:1,2006-01-02T11:30:00Z,27.8903,-94.0367,2.0,99.18597733,43.97395252,-99999.0,'11111222,11111222,99999999' 
TABS,ioos:station:wmo:42046:1,2006-01-02T12:00:00Z,27.8903,-94.0367,2.0,100.3763843,42.2509846,-99999.0,'11111222,11111222,99999999' 
TABS,ioos:station:wmo:42046:1,2006-01-02T12:30:00Z,27.8903,-94.0367,2.0,94.51259875,43.59514308,-99999.0,'11111222,11111222,99999999' 
TABS,ioos:station:wmo:42046:1,2006-01-02T13:00:00Z,27.8903,-94.0367,2.0,93.59331898,46.27096714,-99999.0,'11111222,11111222,99999999' 
TABS,ioos:station:wmo:42046:1,2006-01-02T13:30:00Z,27.8903,-94.0367,2.0,101.393049,44.59881725,-99999.0,'11111222,11111222,99999999' 
TABS,ioos:station:wmo:42046:1,2006-01-02T14:00:00Z,27.8903,-94.0367,2.0,103.3185704,44.537885,-99999.0,'11111222,11111222,99999999' 
TABS,ioos:station:wmo:42046:1,2006-01-02T14:30:00Z,27.8903,-94.0367,2.0,102.6064942,42.38174253,-99999.0,'11111222,11111222,99999999' 
TABS,ioos:station:wmo:42046:1,2006-01-02T15:00:00Z,27.8903,-94.0367,2.0,104.7190455,40.49904937,-99999.0,'11111222,11111222,99999999' 
TABS,ioos:station:wmo:42046:1,2006-01-02T15:30:00Z,27.8903,-94.0367,2.0,103.9995254,41.66762892,-99999.0,'11111222,11111222,99999999' 
TABS,ioos:station:wmo:42046:1,2006-01-02T16:00:00Z,27.8903,-94.0367,2.0,99.115519,42.1017078,-99999.0,'11111222,11111222,99999999' 
TABS,ioos:station:wmo:42046:1,2006-01-02T16:30:00Z,27.8903,-94.0367,2.0,93.48555962,38.98211128,-99999.0,'11111222,11111222,99999999' 
TABS,ioos:station:wmo:42046:1,2006-01-02T17:00:00Z,27.8903,-94.0367,2.0,94.02751518,43.56759346,-99999.0,'11111222,11111222,99999999' 
TABS,ioos:station:wmo:42046:1,2006-01-02T17:30:00Z,27.8903,-94.0367,2.0,93.34556484,40.26862923,-99999.0,'11111222,11111222,99999999' 
TABS,ioos:station:wmo:42046:1,2006-01-02T18:00:00Z,27.8903,-94.0367,2.0,96.66996511,44.51126824,-99999.0,'11111222,11111222,99999999' 
TABS,ioos:station:wmo:42046:1,2006-01-02T18:30:00Z,27.8903,-94.0367,2.0,96.0606732,41.20028398,-99999.0,'11111222,11111222,99999999' 
TABS,ioos:station:wmo:42046:1,2006-01-02T19:00:00Z,27.8903,-94.0367,2.0,94.21099329,41.67249933,-99999.0,'11111222,11111222,99999999' 
TABS,ioos:station:wmo:42046:1,2006-01-02T19:30:00Z,27.8903,-94.0367,2.0,95.00803848,37.57343876,-99999.0,'11111222,11111222,99999999' 
TABS,ioos:station:wmo:42046:1,2006-01-02T20:00:00Z,27.8903,-94.0367,2.0,93.9742544,35.92639281,-99999.0,'11111222,11111222,99999999' 
TABS,ioos:station:wmo:42046:1,2006-01-02T20:30:00Z,27.8903,-94.0367,2.0,102.5232481,33.71207795,-99999.0,'11111222,11111222,99999999' 
TABS,ioos:station:wmo:42046:1,2006-01-02T21:00:00Z,27.8903,-94.0367,2.0,106.2092128,28.33641121,-99999.0,'11111222,11111222,99999999' 
TABS,ioos:station:wmo:42046:1,2006-01-02T21:30:00Z,27.8903,-94.0367,2.0,110.5157215,28.30523803,-99999.0,'11111222,11111222,99999999' 
TABS,ioos:station:wmo:42046:1,2006-01-02T22:00:00Z,27.8903,-94.0367,2.0,110.7163133,26.77092639,-99999.0,'11111222,11111222,99999999' 
TABS,ioos:station:wmo:42046:1,2006-01-02T22:30:00Z,27.8903,-94.0367,2.0,113.4626555,24.2118504,-99999.0,'11111222,11111222,99999999' 
TABS,ioos:station:wmo:42046:1,2006-01-02T23:00:00Z,27.8903,-94.0367,2.0,106.7892236,24.99546559,-99999.0,'11111222,11111222,99999999' 
TABS,ioos:station:wmo:42046:1,2006-01-02T23:30:00Z,27.8903,-94.0367,2.0,106.0551742,27.95017889,-99999.0,'11111222,11111222,99999999' 
TABS,ioos:station:wmo:42046:1,2006-01-03T00:00:00Z,27.8903,-94.0367,2.0,108.6502066,28.61249028,-99999.0,'11111222,11111222,99999999' 
TABS,ioos:station:wmo:42046:1,2006-01-03T00:30:00Z,27.8903,-94.0367,2.0,108.9912808,28.33218135,-99999.0,'11111222,11111222,99999999' 
TABS,ioos:station:wmo:42046:1,2006-01-03T01:00:00Z,27.8903,-94.0367,2.0,107.3706217,30.81538739,-99999.0,'11111222,11111222,99999999' 
TABS,ioos:station:wmo:42046:1,2006-01-03T01:30:00Z,27.8903,-94.0367,2.0,110.0381532,31.98631113,-99999.0,'11111222,11111222,99999999' 
TABS,ioos:station:wmo:42046:1,2006-01-03T02:00:00Z,27.8903,-94.0367,2.0,111.6944837,29.8654332,-99999.0,'11111222,11111222,99999999' 
TABS,ioos:station:wmo:42046:1,2006-01-03T02:30:00Z,27.8903,-94.0367,2.0,114.3565663,30.40627567,-99999.0,'11111222,11111222,99999999' 
TABS,ioos:station:wmo:42046:1,2006-01-03T03:00:00Z,27.8903,-94.0367,2.0,110.4524881,30.44947454,-99999.0,'11111222,11111222,99999999' 
TABS,ioos:station:wmo:42046:1,2006-01-03T03:30:00Z,27.8903,-94.0367,2.0,111.0170656,30.25260485,-99999.0,'11111222,11111222,99999999' 
TABS,ioos:station:wmo:42046:1,2006-01-03T04:00:00Z,27.8903,-94.0367,2.0,110.1420814,30.78262497,-99999.0,'11111222,11111222,99999999' 
TABS,ioos:station:wmo:42046:1,2006-01-03T04:30:00Z,27.8903,-94.0367,2.0,104.4087513,29.09518861,-99999.0,'11111222,11111222,99999999' 
TABS,ioos:station:wmo:42046:1,2006-01-03T05:00:00Z,27.8903,-94.0367,2.0,98.87105642,31.38543771,-99999.0,'11111222,11111222,99999999' 
TABS,ioos:station:wmo:42046:1,2006-01-03T05:30:00Z,27.8903,-94.0367,2.0,100.4423643,30.17984924,-99999.0,'11111222,11111222,99999999' 
TABS,ioos:station:wmo:42046:1,2006-01-03T06:00:00Z,27.8903,-94.0367,2.0,95.10676573,33.14155398,-99999.0,'11111222,11111222,99999999' 
TABS,ioos:station:wmo:42046:1,2006-01-03T06:30:00Z,27.8903,-94.0367,2.0,100.1001642,34.55552054,-99999.0,'11111222,11111222,99999999' 
TABS,ioos:station:wmo:42046:1,2006-01-03T07:00:00Z,27.8903,-94.0367,2.0,103.1121015,33.98608686,-99999.0,'11111222,11111222,99999999' 
TABS,ioos:station:wmo:42046:1,2006-01-03T07:30:00Z,27.8903,-94.0367,2.0,105.6422099,32.19227236,-99999.0,'11111222,11111222,99999999' 
TABS,ioos:station:wmo:42046:1,2006-01-03T08:00:00Z,27.8903,-94.0367,2.0,107.469833,28.91364384,-99999.0,'11111222,11111222,99999999' 
TABS,ioos:station:wmo:42046:1,2006-01-03T08:30:00Z,27.8903,-94.0367,2.0,104.1978133,28.376781,-99999.0,'11111222,11111222,99999999' 
TABS,ioos:station:wmo:42046:1,2006-01-03T09:00:00Z,27.8903,-94.0367,2.0,98.25250975,29.12155216,-99999.0,'11111222,11111222,99999999' 
TABS,ioos:station:wmo:42046:1,2006-01-03T09:30:00Z,27.8903,-94.0367,2.0,108.1059149,28.63805859,-99999.0,'11111222,11111222,99999999' 
TABS,ioos:station:wmo:42046:1,2006-01-03T10:00:00Z,27.8903,-94.0367,2.0,110.0615956,26.17839758,-99999.0,'11111222,11111222,99999999' 
TABS,ioos:station:wmo:42046:1,2006-01-03T10:30:00Z,27.8903,-94.0367,2.0,102.8139472,26.1512906,-99999.0,'11111222,11111222,99999999' 
TABS,ioos:station:wmo:42046:1,2006-01-03T11:00:00Z,27.8903,-94.0367,2.0,107.4527089,25.27347424,-99999.0,'11111222,11111222,99999999' 
TABS,ioos:station:wmo:42046:1,2006-01-03T11:30:00Z,27.8903,-94.0367,2.0,104.6103567,22.9935317,-99999.0,'11111222,11111222,99999999' 
TABS,ioos:station:wmo:42046:1,2006-01-03T12:00:00Z,27.8903,-94.0367,2.0,104.7774679,20.62210465,-99999.0,'11111222,11111222,99999999' 
TABS,ioos:station:wmo:42046:1,2006-01-03T12:30:00Z,27.8903,-94.0367,2.0,96.95140096,18.01240684,-99999.0,'11111222,11111222,99999999' 
TABS,ioos:station:wmo:42046:1,2006-01-03T13:00:00Z,27.8903,-94.0367,2.0,88.14521924,15.44809373,-99999.0,'11111222,11111222,99999999' 
TABS,ioos:station:wmo:42046:1,2006-01-03T13:30:00Z,27.8903,-94.0367,2.0,90.16981469,16.8700741,-99999.0,'11111222,11111222,99999999' 
TABS,ioos:station:wmo:42046:1,2006-01-03T14:00:00Z,27.8903,-94.0367,2.0,80.35355477,14.32251375,-99999.0,'11111222,11111222,99999999' 
TABS,ioos:station:wmo:42046:1,2006-01-03T14:30:00Z,27.8903,-94.0367,2.0,93.03647135,19.06676952,-99999.0,'11111222,11111222,99999999' 
TABS,ioos:station:wmo:42046:1,2006-01-03T15:00:00Z,27.8903,-94.0367,2.0,89.689247,14.75021695,-99999.0,'11111222,11111222,99999999' 
TABS,ioos:station:wmo:42046:1,2006-01-03T15:30:00Z,27.8903,-94.0367,2.0,84.78594126,15.8455672,-99999.0,'11111222,11111222,99999999' 
TABS,ioos:station:wmo:42046:1,2006-01-03T16:00:00Z,27.8903,-94.0367,2.0,82.28908171,18.55780698,-99999.0,'11111222,11111222,99999999' 
TABS,ioos:station:wmo:42046:1,2006-01-03T16:30:00Z,27.8903,-94.0367,2.0,86.87351279,19.06838221,-99999.0,'11111222,11111222,99999999' 
TABS,ioos:station:wmo:42046:1,2006-01-03T17:00:00Z,27.8903,-94.0367,2.0,99.24451835,25.08582269,-99999.0,'11111222,11111222,99999999' 
TABS,ioos:station:wmo:42046:1,2006-01-03T17:30:00Z,27.8903,-94.0367,2.0,96.90156035,23.21823852,-99999.0,'11111222,11111222,99999999' 
TABS,ioos:station:wmo:42046:1,2006-01-03T18:00:00Z,27.8903,-94.0367,2.0,95.21456433,25.74655705,-99999.0,'11111222,11111222,99999999' 
TABS,ioos:station:wmo:42046:1,2006-01-03T18:30:00Z,27.8903,-94.0367,2.0,102.1592347,27.91627661,-99999.0,'11111222,11111222,99999999' 
TABS,ioos:station:wmo:42046:1,2006-01-03T19:00:00Z,27.8903,-94.0367,2.0,96.5343154,25.74725811,-99999.0,'11111222,11111222,99999999' 
TABS,ioos:station:wmo:42046:1,2006-01-03T19:30:00Z,27.8903,-94.0367,2.0,98.5913798,23.36215101,-99999.0,'11111222,11111222,99999999' 
TABS,ioos:station:wmo:42046:1,2006-01-03T20:00:00Z,27.8903,-94.0367,2.0,93.63770505,20.96223509,-99999.0,'11111222,11111222,99999999' 
TABS,ioos:station:wmo:42046:1,2006-01-03T20:30:00Z,27.8903,-94.0367,2.0,87.32177418,20.97290872,-99999.0,'11111222,11111222,99999999' 
TABS,ioos:station:wmo:42046:1,2006-01-03T21:00:00Z,27.8903,-94.0367,2.0,76.86784166,20.29063084,-99999.0,'11111222,11111222,99999999' 
TABS,ioos:station:wmo:42046:1,2006-01-03T21:30:00Z,27.8903,-94.0367,2.0,85.30772948,22.00374741,-99999.0,'11111222,11111222,99999999' 
TABS,ioos:station:wmo:42046:1,2006-01-03T22:00:00Z,27.8903,-94.0367,2.0,81.94515263,23.69375445,-99999.0,'11111222,11111222,99999999' 
TABS,ioos:station:wmo:42046:1,2006-01-03T22:30:00Z,27.8903,-94.0367,2.0,89.56390528,27.59079919,-99999.0,'11111222,11111222,99999999' 
TABS,ioos:station:wmo:42046:1,2006-01-03T23:00:00Z,27.8903,-94.0367,2.0,94.32552059,30.62723788,-99999.0,'11111222,11111222,99999999' 
TABS,ioos:station:wmo:42046:1,2006-01-03T23:30:00Z,27.8903,-94.0367,2.0,95.91938624,31.12596505,-99999.0,'11111222,11111222,99999999' 
TABS,ioos:station:wmo:42046:1,2006-01-04T00:00:00Z,27.8903,-94.0367,2.0,96.35094475,29.38030803,-99999.0,'11111222,11111222,99999999' 
TABS,ioos:station:wmo:42046:1,2006-01-04T00:30:00Z,27.8903,-94.0367,2.0,98.95444294,31.15976412,-99999.0,'11111222,11111222,99999999' 
TABS,ioos:station:wmo:42046:1,2006-01-04T01:00:00Z,27.8903,-94.0367,2.0,98.76894321,30.56729789,-99999.0,'11111222,11111222,99999999' 
TABS,ioos:station:wmo:42046:1,2006-01-04T01:30:00Z,27.8903,-94.0367,2.0,97.88536515,31.12429598,-99999.0,'11111222,11111222,99999999' 
TABS,ioos:station:wmo:42046:1,2006-01-04T02:00:00Z,27.8903,-94.0367,2.0,91.71338813,33.44495328,-99999.0,'11111222,11111222,99999999' 
TABS,ioos:station:wmo:42046:1,2006-01-04T02:30:00Z,27.8903,-94.0367,2.0,93.18489669,31.3183732,-99999.0,'11111222,11111222,99999999' 
TABS,ioos:station:wmo:42046:1,2006-01-04T03:00:00Z,27.8903,-94.0367,2.0,93.23369437,35.98730054,-99999.0,'11111222,11111222,99999999' 
TABS,ioos:station:wmo:42046:1,2006-01-04T03:30:00Z,27.8903,-94.0367,2.0,94.59031077,37.61063945,-99999.0,'11111222,11111222,99999999' 
TABS,ioos:station:wmo:42046:1,2006-01-04T04:00:00Z,27.8903,-94.0367,2.0,95.49511248,39.15996553,-99999.0,'11111222,11111222,99999999' 
TABS,ioos:station:wmo:42046:1,2006-01-04T04:30:00Z,27.8903,-94.0367,2.0,100.8872839,36.42564069,-99999.0,'11111222,11111222,99999999' 
TABS,ioos:station:wmo:42046:1,2006-01-04T05:00:00Z,27.8903,-94.0367,2.0,100.5113888,33.49204383,-99999.0,'11111222,11111222,99999999' 
TABS,ioos:station:wmo:42046:1,2006-01-04T05:30:00Z,27.8903,-94.0367,2.0,97.07479589,32.55788998,-99999.0,'11111222,11111222,99999999' 
TABS,ioos:station:wmo:42046:1,2006-01-04T06:00:00Z,27.8903,-94.0367,2.0,92.80881533,32.03849091,-99999.0,'11111222,11111222,99999999' 
TABS,ioos:station:wmo:42046:1,2006-01-04T06:30:00Z,27.8903,-94.0367,2.0,95.36723373,31.21686724,-99999.0,'11111222,11111222,99999999' 
TABS,ioos:station:wmo:42046:1,2006-01-04T07:00:00Z,27.8903,-94.0367,2.0,85.71729359,31.0667475,-99999.0,'11111222,11111222,99999999' 
TABS,ioos:station:wmo:42046:1,2006-01-04T07:30:00Z,27.8903,-94.0367,2.0,88.11513587,32.22743707,-99999.0,'11111222,11111222,99999999' 
TABS,ioos:station:wmo:42046:1,2006-01-04T08:00:00Z,27.8903,-94.0367,2.0,89.3937195,28.35158726,-99999.0,'11111222,11111222,99999999' 
TABS,ioos:station:wmo:42046:1,2006-01-04T08:30:00Z,27.8903,-94.0367,2.0,91.62240192,30.02203524,-99999.0,'11111222,11111222,99999999' 
TABS,ioos:station:wmo:42046:1,2006-01-04T09:00:00Z,27.8903,-94.0367,2.0,97.74014503,30.96209457,-99999.0,'11111222,11111222,99999999' 
TABS,ioos:station:wmo:42046:1,2006-01-04T09:30:00Z,27.8903,-94.0367,2.0,95.767516,32.04220342,-99999.0,'11111222,11111222,99999999' 
TABS,ioos:station:wmo:42046:1,2006-01-04T10:00:00Z,27.8903,-94.0367,2.0,98.71743658,31.86814868,-99999.0,'11111222,11111222,99999999' 
TABS,ioos:station:wmo:42046:1,2006-01-04T10:30:00Z,27.8903,-94.0367,2.0,95.19275192,31.15787701,-99999.0,'11111222,11111222,99999999' 
TABS,ioos:station:wmo:42046:1,2006-01-04T11:00:00Z,27.8903,-94.0367,2.0,103.7743418,33.43145973,-99999.0,'11111222,11111222,99999999' 
TABS,ioos:station:wmo:42046:1,2006-01-04T11:30:00Z,27.8903,-94.0367,2.0,105.1523743,34.73769278,-99999.0,'11111222,11111222,99999999' 
TABS,ioos:station:wmo:42046:1,2006-01-04T12:00:00Z,27.8903,-94.0367,2.0,106.7810467,33.52778549,-99999.0,'11111222,11111222,99999999' 
TABS,ioos:station:wmo:42046:1,2006-01-04T12:30:00Z,27.8903,-94.0367,2.0,107.4993816,30.79520255,-99999.0,'11111222,11111222,99999999' 
TABS,ioos:station:wmo:42046:1,2006-01-04T13:00:00Z,27.8903,-94.0367,2.0,108.4464759,31.31919858,-99999.0,'11111222,11111222,99999999' 
TABS,ioos:station:wmo:42046:1,2006-01-04T13:30:00Z,27.8903,-94.0367,2.0,111.6556891,31.40675405,-99999.0,'11111222,11111222,99999999' 
TABS,ioos:station:wmo:42046:1,2006-01-04T14:00:00Z,27.8903,-94.0367,2.0,112.978692,30.4567513,-99999.0,'11111222,11111222,99999999' 
TABS,ioos:station:wmo:42046:1,2006-01-04T14:30:00Z,27.8903,-94.0367,2.0,114.3813043,33.33267466,-99999.0,'11111222,11111222,99999999' 
TABS,ioos:station:wmo:42046:1,2006-01-04T15:00:00Z,27.8903,-94.0367,2.0,108.6225899,27.99579433,-99999.0,'11111222,11111222,99999999' 
TABS,ioos:station:wmo:42046:1,2006-01-04T15:30:00Z,27.8903,-94.0367,2.0,115.4736895,28.41216113,-99999.0,'11111222,11111222,99999999' 
TABS,ioos:station:wmo:42046:1,2006-01-04T16:00:00Z,27.8903,-94.0367,2.0,114.9953965,29.06189946,-99999.0,'11111222,11111222,99999999' 